| time (UTC) | temp F | wind direction | speed knots | gust knots | rain 1hr in | rain 24hr in | rain mn in | humidity % | barometer mb |
| 20260504211524 | 52 | 352 | 7.0 | 12.2 | 0.00 | 0.00 | 0.00 | 69 | 1005.6 |
| 20260504210027 | 51 | 337 | 7.0 | 11.3 | 0.00 | 0.00 | 0.00 | 70 | 1005.6 |
| 20260504204528 | 51 | 310 | 6.1 | 9.6 | 0.00 | 0.00 | 0.00 | 72 | 1005.4 |
| 20260504203021 | 51 | 328 | 7.0 | 11.3 | 0.00 | 0.00 | 0.00 | 73 | 1005.5 |
| 20260504201522 | 50 | 323 | 7.0 | 12.2 | 0.00 | 0.00 | 0.00 | 74 | 1005.4 |
| 20260504200025 | 50 | 322 | 6.1 | 10.4 | 0.00 | 0.01 | 0.00 | 74 | 1005.4 |
| 20260504194537 | 50 | 317 | 8.7 | 13.0 | 0.00 | 0.01 | 0.00 | 73 | 1005.4 |
| 20260504193031 | 50 | 295 | 7.0 | 8.7 | 0.00 | 0.01 | 0.00 | 75 | 1005.4 |
| 20260504191516 | 48 | 293 | 4.3 | 7.8 | 0.00 | 0.01 | 0.00 | 79 | 1005.4 |
| 20260504190029 | 46 | 297 | 1.7 | 3.5 | 0.00 | 0.02 | 0.00 | 81 | 1005.5 |
| 20260504184533 | 47 | 278 | 2.6 | 4.3 | 0.00 | 0.03 | 0.00 | 80 | 1005.4 |
| 20260504183027 | 46 | 275 | 1.7 | 2.6 | 0.00 | 0.03 | 0.00 | 80 | 1005.4 |
| 20260504181516 | 46 | 275 | 1.7 | 3.5 | 0.00 | 0.04 | 0.00 | 79 | 1005.5 |
| 20260504180022 | 46 | 273 | 1.7 | 4.3 | 0.00 | 0.06 | 0.00 | 81 | 1005.4 |
| 20260504174504 | 46 | 278 | 2.6 | 3.5 | 0.00 | 0.06 | 0.00 | 81 | 1005.6 |
| 20260504173014 | 46 | 314 | 2.6 | 4.3 | 0.00 | 0.06 | 0.00 | 82 | 1005.6 |
| 20260504171516 | 46 | 316 | 3.5 | 6.1 | 0.00 | 0.06 | 0.00 | 81 | 1005.8 |
| 20260504081529 | 39 | 321 | 3.5 | 4.3 | 0.00 | 0.46 | 0.00 | 62 | 1005.9 |
| 20260504050012 | 40 | 328 | 2.6 | 5.2 | 0.00 | 0.52 | 0.00 | 66 | 1005.4 |
| 20260504044518 | 42 | 339 | 5.2 | 8.7 | 0.00 | 0.52 | 0.00 | 65 | 1005.2 |
| 20260504043022 | 42 | 336 | 5.2 | 9.6 | 0.00 | 0.52 | 0.00 | 65 | 1005.1 |
| 20260504041504 | 42 | 345 | 2.6 | 10.4 | 0.00 | 0.52 | 0.00 | 63 | 1005.0 |
| 20260504040010 | 42 | 352 | 1.7 | 9.6 | 0.00 | 0.52 | 0.00 | 63 | 1005.0 |
| 20260504034528 | 42 | 345 | 3.5 | 10.4 | 0.00 | 0.52 | 0.52 | 59 | 1004.8 |
| 20260504033023 | 42 | 338 | 3.5 | 9.6 | 0.00 | 0.52 | 0.52 | 64 | 1004.7 |
| 20260504031526 | 43 | 355 | 5.2 | 13.0 | 0.00 | 0.52 | 0.52 | 55 | 1004.8 |
| 20260504030009 | 43 | 304 | 5.2 | 11.3 | 0.00 | 0.52 | 0.52 | 56 | 1004.7 |
| 20260504024510 | 43 | 352 | 7.8 | 13.9 | 0.00 | 0.52 | 0.52 | 56 | 1004.7 |
| 20260504023017 | 43 | 338 | 8.7 | 13.9 | 0.00 | 0.54 | 0.52 | 55 | 1004.5 |
| 20260504021524 | 43 | 347 | 10.4 | 14.8 | 0.00 | 0.55 | 0.52 | 56 | 1004.3 |
| 20260504020025 | 43 | 326 | 8.7 | 14.8 | 0.00 | 0.55 | 0.52 | 55 | 1004.2 |
| 20260504014515 | 43 | 330 | 10.4 | 14.8 | 0.00 | 0.55 | 0.52 | 55 | 1004.2 |
| 20260504013012 | 43 | 338 | 7.8 | 13.9 | 0.00 | 0.56 | 0.52 | 56 | 1004.2 |
| 20260504011518 | 43 | 347 | 8.7 | 13.0 | 0.00 | 0.57 | 0.52 | 58 | 1003.9 |
| 20260504010024 | 44 | 328 | 7.8 | 13.0 | 0.00 | 0.58 | 0.52 | 59 | 1003.8 |
| 20260504004529 | 44 | 326 | 7.8 | 10.4 | 0.00 | 0.60 | 0.52 | 60 | 1003.7 |
| 20260504003009 | 44 | 354 | 10.4 | 14.8 | 0.00 | 0.61 | 0.52 | 60 | 1003.5 |
| 20260504001519 | 45 | 340 | 9.6 | 11.3 | 0.00 | 0.61 | 0.52 | 60 | 1003.4 |
| 20260504000022 | 45 | 349 | 9.6 | 13.9 | 0.00 | 0.61 | 0.52 | 60 | 1003.0 |
| 20260503234528 | 45 | 342 | 9.6 | 13.9 | 0.00 | 0.61 | 0.52 | 66 | 1002.7 |
| 20260503233025 | 43 | 354 | 0.9 | 2.6 | 0.00 | 0.61 | 0.52 | 86 | 1002.7 |
| 20260503231516 | 43 | 354 | 0.0 | 1.7 | 0.00 | 0.61 | 0.52 | 91 | 1002.4 |
| 20260503230018 | 43 | 354 | 0.0 | 0.0 | 0.00 | 0.61 | 0.52 | 89 | 1002.4 |
| 20260503224520 | 44 | 75 | 0.0 | 1.7 | 0.00 | 0.61 | 0.52 | 83 | 1002.4 |
| 20260503223026 | 45 | 7 | 0.9 | 2.6 | 0.00 | 0.61 | 0.52 | 82 | 1002.5 |
| 20260503221514 | 45 | 2 | 0.0 | 1.7 | 0.00 | 0.61 | 0.52 | 86 | 1002.4 |
| 20260503220018 | 45 | 113 | 0.0 | 3.5 | 0.00 | 0.61 | 0.52 | 86 | 1002.3 |
| 20260503214521 | 45 | 64 | 0.9 | 4.3 | 0.00 | 0.61 | 0.52 | 81 | 1002.6 |
| 20260503213041 | 45 | 82 | 0.0 | 3.5 | 0.00 | 0.61 | 0.52 | 84 | 1002.7 |